sat.trackr.live / text

‹ back to catalog

STARLINK-35683

NORAD 66405 · 2025-257AB

PAYLOAD ACTIVE UNKNOWN

§ Identity

Operator
Country
US
Launch date
2025-11-09
Launch site
AFETR
Launch vehicle
Mass (kg)
RCS (m²)

Purposes: comms

External: N2YO · Heavens-Above · Gunter

§ Orbital elements

Epoch: 2026-05-25T04:19:55.098912Z

Period
93.85 min
Inclination
53.1600°
Eccentricity
0.0001525
Mean motion
15.34406702 rev/d
Perigee alt
461.6 km
Apogee alt
463.7 km
Semi-major
6,840.8 km
B*
6.2706e-4
RAAN
221.0827°
Arg perigee
80.7674°
Mean anomaly
279.3501°
Rev number
3,138

§ Raw data

STARLINK-356831 66405U 25257AB  26145.18049883  .00020873  00000+0  62706-3 0  99942 66405  53.1600 221.0827 0001525  80.7674 279.3501 15.34406702 31389

JSON: /api/v1/satellites/66405 · /tle

For live sub-satellite position, see the globe view (requires WebGL).

§ Visibility from observer

Set your observer location to see the next 7 days of passes ≥ 10°. The values pass through the URL so the page stays shareable.

No JS? Fill the form by hand. The geolocation button needs JavaScript.